Weather History for Aurora, OR

Change the Weather History Date:

Sunday, October 13, 2013

  Actual Average Record
Temperature  
Mean Temperature 52 °F -  
Max Temperature 64 °F - 79 °F (2004)
Min Temperature 42 °F - 36 °F (2002)
Degree Days  
Heating Degree Days 12    
Month to date heating degree days 170  
Since 1 July heating degree days 289  
Cooling Degree Days 0    
Month to date cooling degree days 0  
Year to date cooling degree days 426  
Growing Degree Days 2 (Base 50)    
Moisture  
Dew Point 44 °F    
Average Humidity 76    
Maximum Humidity 100    
Minimum Humidity 52    
Precipitation  
Precipitation 0.00 in - 0.98 in (1968)
Month to date precipitation 0.85  
Year to date precipitation 21.82  
Sea Level Pressure  
Sea Level Pressure 30.26 in    
Wind  
Wind Speed 4 mph (NNE)    
Max Wind Speed 13 mph    
Max Gust Speed 18 mph    
Visibility 10 miles    
Events      
T = Trace of Precipitation, MM = Missing Value Source: NWS Daily Summary

Daily Weather History Graph

Daily Weather History Graph

Search for Another Location

Airport:

Trip Planner

Search our weather history database for the weather conditions in past years. The results will help you decide how hot, cold, wet, or windy it might be!

Date:

Astronomy

Oct. 13, 2013 Rise Set
Actual Time 7:24 AM PDT 6:28 PM PDT
Civil Twilight 6:55 AM PDT 6:58 PM PDT
Nautical Twilight 6:21 AM PDT 7:32 PM PDT
Astronomical Twilight 5:46 AM PDT 8:06 PM PDT
Moon 3:36 PM PDT (10/13) 1:26 AM PDT (10/13)
Length of Visible Light 12h 03m
Length of Day
11h 03m
Waxing Gibbous, 70% of the Moon is Illuminated
Oct 13
Waxing Gibbous
Oct 18
Full
Oct 26
Last Quarter
Nov 3
New
Nov 9
First Quarter

Hourly Weather History & Observations

Time (PDT) Temp. Windchill Dew Point Humidity Pressure Visibility Wind Dir Wind Speed Gust Speed Precip Events Conditions
12:53 AM 43.0 °F 39.5 °F 42.1 °F 97% 30.20 in 10.0 mi North 5.8 mph - N/A   Clear
1:46 AM 44.6 °F 42.2 °F 42.8 °F 93% 30.21 in 10.0 mi NNE 4.6 mph - N/A   Mostly Cloudy
1:53 AM 44.1 °F 41.5 °F 43.0 °F 96% 30.21 in 10.0 mi NNE 4.6 mph - N/A   Mostly Cloudy
2:30 AM 44.6 °F 42.2 °F 42.8 °F 93% 30.21 in 10.0 mi NE 4.6 mph - N/A   Mostly Cloudy
2:53 AM 43.0 °F - 42.1 °F 97% 30.22 in 8.0 mi Calm Calm - N/A   Mostly Cloudy
3:07 AM 42.8 °F - 42.8 °F 100% 30.22 in 10.0 mi Calm Calm - N/A   Mostly Cloudy
3:53 AM 45.0 °F 41.8 °F 44.1 °F 97% 30.22 in 10.0 mi NNE 5.8 mph - N/A   Overcast
4:15 AM 42.8 °F 39.3 °F 41.0 °F 93% 30.22 in 9.0 mi NNE 5.8 mph - N/A   Scattered Clouds
4:53 AM 44.1 °F 40.8 °F 43.0 °F 96% 30.24 in 8.0 mi North 5.8 mph - N/A   Mostly Cloudy
5:53 AM 46.0 °F 43.1 °F 45.0 °F 96% 30.25 in 8.0 mi North 5.8 mph - N/A   Overcast
6:04 AM 46.4 °F 43.5 °F 44.6 °F 93% 30.25 in 8.0 mi NNE 5.8 mph - N/A   Overcast
6:53 AM 46.0 °F 42.5 °F 45.0 °F 96% 30.26 in 7.0 mi North 6.9 mph - N/A   Overcast
7:53 AM 46.0 °F 43.1 °F 44.1 °F 93% 30.26 in 7.0 mi NNE 5.8 mph - N/A   Overcast
8:53 AM 46.0 °F 44.8 °F 44.1 °F 93% 30.28 in 10.0 mi NE 3.5 mph - N/A   Overcast
9:53 AM 46.9 °F - 44.1 °F 90% 30.30 in 10.0 mi North 8.1 mph - N/A   Overcast
10:53 AM 48.0 °F - 44.1 °F 86% 30.30 in 10.0 mi North 8.1 mph - N/A   Overcast
11:08 AM 48.2 °F - 44.6 °F 87% 30.29 in 10.0 mi NNE 5.8 mph - N/A   Overcast
11:53 AM 50.0 °F - 44.1 °F 80% 30.30 in 10.0 mi NE 5.8 mph - N/A   Overcast
12:34 PM 53.6 °F - 44.6 °F 72% 30.28 in 10.0 mi NNE 8.1 mph - N/A   Scattered Clouds
12:53 PM 54.0 °F - 45.0 °F 72% 30.28 in 10.0 mi NNE 5.8 mph - N/A   Clear
1:53 PM 57.9 °F - 46.9 °F 67% 30.26 in 10.0 mi North 3.5 mph - N/A   Clear
2:53 PM 61.0 °F - 45.0 °F 56% 30.25 in 10.0 mi NE 6.9 mph - N/A   Clear
3:53 PM 63.0 °F - 44.1 °F 50% 30.25 in 10.0 mi NNE 5.8 mph - N/A   Clear
4:53 PM 63.0 °F - 45.0 °F 52% 30.25 in 10.0 mi NE 6.9 mph - N/A   Clear
5:53 PM 61.0 °F - 44.1 °F 54% 30.26 in 10.0 mi ENE 4.6 mph - N/A   Clear
6:53 PM 55.0 °F - 46.0 °F 72% 30.27 in 10.0 mi Calm Calm - N/A   Clear
7:53 PM 54.0 °F - 44.1 °F 69% 30.29 in 10.0 mi ENE 4.6 mph - N/A   Clear
8:53 PM 53.1 °F - 44.1 °F 71% 30.30 in 10.0 mi NE 3.5 mph - N/A   Clear
9:53 PM 48.9 °F - 44.1 °F 83% 30.31 in 10.0 mi Calm Calm - N/A   Clear
10:53 PM 46.9 °F - 44.1 °F 90% 30.32 in 10.0 mi Calm Calm - N/A   Clear
11:53 PM 45.0 °F - 43.0 °F 93% 30.32 in 10.0 mi Calm Calm - N/A   Clear